Weather Roundup
Issued by NWS Corpus Christi, TX

Home | Current Version | Previous Version | Text Only | Print | Product List | Glossary On
Versions: 1 2 3 4 5 6 7 8 9 10 11 12 13 14 15 16 17 18 19 20 21 22 23 24 25 26 27 28 29 30 31 32 33 34 35 36 37 38 39 40 41 42 43 44 45 46 47 48 49 50
000
ASUS44 KCRP 031910
HRRCRP

SOUTH TEXAS REGIONAL WEATHER ROUNDUP
NATIONAL WEATHER SERVICE CORPUS CHRISTI TX
200 PM CDT MON AUG 03 2015


TXZ229>244-032000-
...CORPUS CHRISTI AREA OBSERVATIONS...

CITY           SKY/WX    TMP DP  RH WIND       PRES   REMARKS
CORPUS CHRISTI TSTM      78  74  87 NE24      29.91S VSB 3/4
NAS CORPUS CHR MOSUNNY   89  76  65 SE14      29.90F HX 100
ROCKPORT       MOSUNNY   91  74  57 S9G18     29.89F HX 100
KINGSVILLE NAS PTSUNNY   92  78  63 SE12G21   29.87F HX 107
ALICE          MOSUNNY   97  72  44 SE8       29.87F HX 105
FALFURRIAS     MOSUNNY   96  70  42 SE6       29.85F HX 102
$$

...VICTORIA AREA OBSERVATIONS...

CITY           SKY/WX    TMP DP  RH WIND       PRES   REMARKS
VICTORIA       MOSUNNY   94  71  47 CALM      29.89F HX 101
BEEVILLE       FAIR      92  74  54 E3        29.89F HAZE    HX 102
PLEASANTON     MOSUNNY   96  63  33 E3        29.90F HX  98
SAN ANTONIO    MOSUNNY   96  61  31 CALM      29.92F HX  96
$$

...LAREDO AREA OBSERVATIONS...

CITY           SKY/WX    TMP DP  RH WIND       PRES   REMARKS
LAREDO         MOSUNNY   98  64  32 CALM      29.88F HX 100
COTULLA        MOSUNNY   96  65  35 E8G21     29.88F HX  98
DEL RIO        SUNNY     97  61  30 S8G18     29.88F HX  97
MCALLEN        MOSUNNY  100  66  32 SE13      29.85F HX 104
HEBBRONVILLE     N/A     95  65  37 E6        29.89F HX  97
$$

...OTHER TEXAS OBSERVATIONS...

CITY           SKY/WX    TMP DP  RH WIND       PRES   REMARKS
BROWNSVILLE    MOSUNNY   93  73  52 SE18G25   29.88F HX 102
HOUSTON        MOSUNNY   97  67  37 CALM      29.91F HX 101
COL. STATION   SUNNY     97  61  30 E5        29.91F HX  97
AUSTIN         MOSUNNY   96  60  30 E9G16     29.91F HX  96
WACO           SUNNY     98  61  29 S8        29.91F HX  98
FORT WORTH     MOSUNNY   97  55  24 VRB6      29.91F HX  95
WICHITA FALLS  CLOUDY    81  70  69 E7        29.94S
LUBBOCK        PTSUNNY   89  64  43 S12       30.01F HX  90
EL PASO        MOSUNNY   89  59  36 VRB3      30.05F
$$

...MARINE OBSERVATIONS...

STATION/POSITION TIME  SKY/WX   TEMP    WIND        PRES    VSBY  WAVE   SWELL
                                AIR SEA DIR/SP/G                  HT/PER HT/PER
                 (UTC)          (F)     (DEG/KT/KT) (MB)    (MI)  (FT/S) (FT/S)
PORT ARANSAS     1900            84 86  130/  9/ 11 1013.5F
BUOY 90 E PORT A 1850            85 87  240/  6/  8 1013.5S         2/ 4   2/ 4
BUOY 45 SE BAFFI 1850            84 86  160/ 10/ 12 1012.3F         2/ 5   2/ 5
BUOY 200 E PT IS 1850            86 88  130/  4/  6 1014.2F         1/ 4
BUOY 15 E GALVES 1850            85 89  120/  2/  4 1013.1F         1
$$


USA.gov is the U.S. government's official web portal to all federal, state and local government web resources and services.